#timestamp,LO_Frequency,Hit,StdDev 
1622000175.4,286047026.5,P
1622000195.3,286047027.2,P
1622000215.1,286047027.1,P
1622000216.0,286047027.1,Y
1622000235.8,286046998.2,P
1622000255.7,286047001.2,N
1622000275.5,286046999.0,N
1622000295.4,286046996.7,N
1622000315.2,286047000.6,N
1622000335.0,286047000.2,N
1622000335.9,286047000.2,N
1622000355.8,286047003.2,N
1622000375.6,286047000.4,N
1622000395.4,286046997.1,N
1622000415.3,286046993.2,N
1622000435.1,286046990.4,N
1622000455.9,286046988.5,N
1622000475.7,286046987.1,N
1622000495.5,286046985.3,N
1622000515.4,286046986.6,N
1622000535.2,286046984.2,N
1622000555.0,286046985.9,N
1622000555.9,286046985.9,N
1622000575.8,286046986.7,N
1622000595.6,286046984.0,N
1622000615.5,286046984.2,N
1622000635.3,286046983.8,N
1622000655.1,286046983.9,N
1622000675.9,286046984.0,N
1622000695.7,286046984.0,N
1622000715.5,286046986.3,N
1622000735.4,286046982.5,N
1622000755.2,286046983.7,N
1622000775.1,286046986.5,N
1622000776.0,286046986.5,N
1622000795.8,286046989.0,N
1622000815.6,286046996.3,N
1622000835.5,286047000.6,N
1622000855.3,286046998.8,N
1622000875.1,286046993.5,N
1622000895.9,286046992.3,N
1622000915.7,286046992.9,N
1622000935.6,286046991.2,N
1622000955.4,286046989.8,N
1622000975.2,286046985.3,Y
1622000995.1,286046998.1,P
1622000996.0,286046998.1,N
1622001015.8,286046998.2,N
1622001035.6,286046998.3,N
1622001055.5,286047001.2,N
1622001075.3,286047000.7,N
1622001095.2,286046998.3,N
1622001115.9,286046996.6,N
1622001135.7,286046999.6,N
1622001155.6,286046998.8,N
1622001175.4,286047000.9,N
1622001195.2,286046998.5,N
1622001215.1,286046999.8,N
1622001216.0,286046999.8,N
1622001235.8,286046999.7,N
1622001255.7,286047002.7,N
1622001275.5,286046999.8,N
1622001295.3,286047000.0,N
1622001315.2,286047000.8,N
1622001335.0,286046998.1,N
1622001335.9,286046998.1,N
1622001355.8,286046999.5,N
1622001375.6,286046998.2,N
1622001395.4,286047000.3,N
1622001415.3,286047000.8,N
1622001435.1,286046998.1,N
1622001455.8,286047001.2,N
1622001475.7,286046999.9,N
1622001495.5,286047000.0,N
1622001515.4,286047000.5,N
1622001535.2,286047000.1,N
1622001555.0,286047000.2,N
1622001555.9,286047000.2,N
1622001575.8,286047000.3,N
1622001595.6,286047000.5,N
